TimePDT,TemperatureF,Dew PointF,Humidity,Sea Level PressureIn,VisibilityMPH,Wind Direction,Wind SpeedMPH,Gust SpeedMPH,PrecipitationIn,Events,Conditions,WindDirDegrees,DateUTC
12:53 AM,63.0,57.0,81,29.90,10.0,Calm,Calm,-,0.00,Rain,Light Rain,0,2013-08-23 07:53:00
1:53 AM,62.1,57.0,84,29.91,10.0,North,3.5,-,0.02,Rain,Light Rain,360,2013-08-23 08:53:00
2:53 AM,62.1,55.9,80,29.90,10.0,NNE,4.6,-,0.00,,Overcast,20,2013-08-23 09:53:00
3:53 AM,61.0,55.9,83,29.91,10.0,North,5.8,-,0.00,Rain,Light Rain,360,2013-08-23 10:53:00
4:53 AM,61.0,55.9,83,29.90,10.0,North,3.5,-,0.01,,Overcast,350,2013-08-23 11:53:00
5:53 AM,59.0,55.0,87,29.89,10.0,Calm,Calm,-,N/A,,Overcast,0,2013-08-23 12:53:00
6:14 AM,59.0,55.4,88,29.89,10.0,Calm,Calm,-,N/A,,Overcast,0,2013-08-23 13:14:00
6:48 AM,60.8,57.2,88,29.89,10.0,Calm,Calm,-,N/A,,Overcast,0,2013-08-23 13:48:00
6:53 AM,60.1,57.0,90,29.90,10.0,Calm,Calm,-,N/A,,Overcast,0,2013-08-23 13:53:00
7:11 AM,60.8,57.2,88,29.90,10.0,Calm,Calm,-,N/A,,Overcast,0,2013-08-23 14:11:00
7:23 AM,60.8,57.2,88,29.91,10.0,Calm,Calm,-,N/A,,Overcast,0,2013-08-23 14:23:00
7:41 AM,-9999,-9999,N/A,-9999,-9999.0,North,-9999.0,-,N/A,,Unknown,0,2013-08-23 14:41:00
7:53 AM,61.0,57.0,87,29.92,10.0,Calm,Calm,-,N/A,,Unknown,0,2013-08-23 14:53:00
8:16 AM,60.8,57.2,88,29.92,10.0,Calm,Calm,-,N/A,,Overcast,0,2013-08-23 15:16:00
8:53 AM,61.0,57.0,87,29.93,10.0,SE,3.5,-,N/A,,Overcast,140,2013-08-23 15:53:00
9:53 AM,62.1,57.0,84,29.93,10.0,SSE,3.5,-,N/A,,Overcast,160,2013-08-23 16:53:00
10:53 AM,63.0,57.9,84,29.94,10.0,SSW,3.5,-,N/A,,Overcast,200,2013-08-23 17:53:00
11:53 AM,64.0,57.9,80,29.94,7.0,SSE,4.6,-,N/A,,Overcast,150,2013-08-23 18:53:00
12:17 PM,66.2,59.0,78,29.94,10.0,South,4.6,-,N/A,,Overcast,180,2013-08-23 19:17:00
12:53 PM,66.9,57.0,70,29.94,10.0,SSE,5.8,-,N/A,,Overcast,150,2013-08-23 19:53:00
1:53 PM,72.0,57.0,59,29.93,10.0,ESE,6.9,-,N/A,,Scattered Clouds,120,2013-08-23 20:53:00
2:53 PM,73.0,55.0,53,29.91,10.0,SSE,5.8,-,N/A,,Clear,160,2013-08-23 21:53:00
3:53 PM,73.0,55.0,53,29.90,10.0,SE,6.9,-,N/A,,Mostly Cloudy,130,2013-08-23 22:53:00
4:53 PM,73.9,55.0,52,29.88,10.0,Variable,3.5,-,N/A,,Partly Cloudy,0,2013-08-23 23:53:00
5:53 PM,73.0,55.0,53,29.88,10.0,East,3.5,-,N/A,,Mostly Cloudy,90,2013-08-24 00:53:00
6:53 PM,73.0,55.9,55,29.87,10.0,NNW,5.8,-,N/A,,Overcast,340,2013-08-24 01:53:00
7:53 PM,69.1,57.0,65,29.87,10.0,NNW,6.9,-,N/A,,Clear,340,2013-08-24 02:53:00
8:53 PM,66.9,54.0,63,29.88,10.0,North,5.8,-,N/A,,Overcast,350,2013-08-24 03:53:00
9:53 PM,64.0,55.9,75,29.89,10.0,NNE,5.8,-,N/A,,Mostly Cloudy,20,2013-08-24 04:53:00
10:53 PM,63.0,55.9,78,29.89,10.0,North,4.6,-,N/A,,Overcast,360,2013-08-24 05:53:00
11:53 PM,64.0,55.9,75,29.89,10.0,North,4.6,-,N/A,,Overcast,10,2013-08-24 06:53:00